Regional Weather Roundup
Issued by NWS

Home | Current Version | Previous Version | Text Only | Print | Product List | Glossary Off
Versions: 1 2 3 4 5 6 7 8 9 10 11 12 13 14 15 16 17 18 19 20 21 22 23 24 25 26 27 28 29 30 31 32 33 34 35 36 37 38 39 40 41 42 43 44 45 46 47 48 49 50

000
ASUS45 KCYS 301910
RWRWY

WYOMING REGIONAL WEATHER ROUNDUP
NATIONAL WEATHER SERVICE CHEYENNE WY
100 PM MDT WED JUL 30 2014

NOTE:  "FAIR" INDICATES FEW OR NO CLOUDS BELOW 12,000 FEET
WITH NO SIGNIFICANT WEATHER AND/OR OBSTRUCTIONS TO VISIBILITY.

WYZ001-302000-
YELLOWSTONE NATIONAL PARK

CITY           SKY/WX    TMP DP  RH WIND       PRES   REMARKS
LK YELLOWSTONE   N/A     66  32  28 S3        30.48S
W YELLOWSTONE  NOT AVBL

$$
WYZ002>013-054>058-071-098>099-302000-
NORTHERN WYOMING

CITY           SKY/WX    TMP DP  RH WIND       PRES   REMARKS
JACKSON        SUNNY     70  43  37 N12       30.37S
CODY           NOT AVBL
GREYBULL       MOSUNNY   80  46  30 VRB3      30.24F
WORLAND        PTSUNNY   77  48  35 W5        30.26F
SHERIDAN       MOSUNNY   85  40  20 VRB3      30.25F
BUFFALO        MOSUNNY   81  39  22 NE12      30.31F
GILLETTE       SUNNY     80  42  25 N6G21     30.25F
HULETT         FAIR      77  41  27 MISG      30.27
NEWCASTLE      FAIR      79  43  27 MISG      30.25

$$
WYZ014>020-022>026-101>103-302000-
CENTRAL WYOMING

CITY           SKY/WX    TMP DP  RH WIND       PRES   REMARKS
BIG PINEY      LGT RAIN  55  51  86 NW12      30.45R
PINEDALE       CLOUDY    59  46  63 W6        30.44R
DUBOIS         FAIR      64  36  34 S15       30.43S
LANDER         CLOUDY    70  49  47 N7        30.35F
RIVERTON       PTSUNNY   70  47  43 MISG      30.35F
CASPER         MOSUNNY   74  43  32 E8        30.32F
DOUGLAS        PTSUNNY   75  48  38 VRB5      30.31F

$$
WYZ021-027>030-104>119-302000-
SOUTHERN WYOMING

CITY           SKY/WX    TMP DP  RH WIND       PRES   REMARKS
EVANSTON       LGT RAIN  59  55  87 NE14      30.39S
KEMMERER       LGT RAIN  55  54  94 E10G17    30.43S
FORT BRIDGER   CLOUDY    59  58  97 NE15      30.43R
ROCK SPRINGS   LGT RAIN  62  51  67 E17       30.37S
DIXON          CLOUDY    67  53  61 NE3       30.32S
RAWLINS        CLOUDY    64  50  60 E18G26    30.37F
SARATOGA       DRIZZLE   63  54  72 CALM      30.37F
LARAMIE        LGT RAIN  55  52  89 S5        30.40F
CHEYENNE       LGT RAIN  58  54  86 SE3       30.38S
TORRINGTON     CLOUDY    72  56  57 W6        30.27S
PINE BLUFFS    LGT RAIN  59  55  88 S10       30.35R

$$



USA.gov is the U.S. government's official web portal to all federal, state and local government web resources and services.